[[{"header":{"parameterUnit":"m.s-1","parameterCategory":1,"la1":30.2991,"la2":30.254,"lo1":-89.0895,"lo2":-89.0444,"dy":0.0017,"dx":0.0017,"nx":28,"ny":28,"refTime":"2023-11-11T09:00:00:Z","depth":0,"parameterNumber":2,"parameterNumberName":"U-component_of_WINDS"},"data":[0,0,0,0,0,0,0,0,0,0,0,0,0,0,0,0,0,0,0,0,0,0,0,0,0,0,0,0,0,0,0,0,0,0,0,0,0,0,0,0,0,0,0,0,0,0,0,0,0,0,0,0,0,0,0,0,0,0,-1.8241,-1.8241,0,-1.8274,-1.8274,-1.8274,-1.8219,-1.8217,-1.8215,-1.8213,-1.8249,-1.8252,-1.8254,0,0,0,0,0,0,0,0,0,0,0,0,0,-1.8131,-1.8133,-1.824,-1.8241,-1.8241,-1.8274,-1.8274,-1.8275,-1.8219,-1.8217,-1.8214,-1.8212,-1.8248,-1.8251,-1.8255,0,0,0,0,0,0,0,0,0,0,0,0,0,-1.8173,-1.8134,-1.824,-1.8217,-1.8216,-1.8274,-1.8274,-1.8275,-1.8219,-1.8217,-1.8214,-1.8211,-1.8247,-1.8251,-1.8255,-1.8337,0,0,-1.8267,-1.8269,0,0,0,0,0,0,0,0,-1.817,-1.8177,-1.822,-1.8219,-1.8217,-1.8239,-1.8248,-1.8296,-1.822,-1.8218,-1.8213,-1.821,-1.8248,-1.8252,-1.8264,-1.8339,-1.8341,-1.8268,-1.827,-1.8272,-1.8273,0,0,0,0,0,0,0,-1.8167,-1.8175,-1.8254,-1.8221,-1.8219,-1.8206,-1.8209,-1.8257,-1.8249,-1.8218,-1.8214,-1.8219,-1.8247,-1.8261,-1.8265,-1.8341,-1.8268,-1.8271,-1.8274,-1.8276,-1.8486,-1.8488,0,0,0,0,0,0,-1.8167,-1.8173,-1.8253,-1.8255,-1.8186,-1.821,-1.8213,-1.8235,-1.8248,-1.8247,-1.8221,-1.8216,-1.8255,-1.826,-1.8266,-1.8364,-1.8272,-1.8276,-1.8278,-1.8482,-1.8486,-1.849,0,0,0,0,0,0,-1.8165,-1.8175,-1.8251,-1.8213,-1.8221,-1.8215,-1.824,-1.8237,-1.8251,-1.825,-1.8249,-1.8237,-1.8253,-1.826,-1.832,-1.8364,-1.8278,-1.8281,-1.8479,-1.8484,-1.8488,-1.856,0,0,0,0,0,0,-1.8162,-1.8174,-1.8205,-1.8214,-1.8224,-1.8305,-1.8243,-1.824,-1.8258,-1.8252,-1.8265,-1.8264,-1.8251,-1.8314,-1.8324,-1.8368,-1.8285,-1.8475,-1.8481,-1.8486,-1.8554,-1.8567,-1.8578,0,0,0,0,0,-1.8158,-1.8225,-1.8207,-1.8217,-1.8262,-1.8307,-1.8313,-1.8296,-1.8262,-1.8293,-1.8293,-1.8264,-1.8358,-1.8321,-1.8331,-1.8378,-1.8472,-1.8479,-1.8486,-1.8548,-1.8564,-1.8578,0,0,0,0,0,0,-1.8222,-1.8225,-1.8206,-1.8277,-1.8292,-1.8298,-1.8337,-1.8313,-1.8339,-1.8332,-1.8311,-1.8315,-1.8379,-1.8384,-1.8343,-1.8458,-1.8409,-1.8419,-1.8453,-1.8468,-1.848,-1.8478,-1.8288,0,0,0,0,0,-1.8244,-1.828,-1.8281,-1.8344,-1.8352,-1.8343,-1.8362,-1.8348,-1.8363,-1.837,-1.8374,-1.839,-1.8423,-1.8446,-1.8476,-1.8554,-1.8556,-1.8591,-1.8603,-1.8613,-1.8622,-1.8664,-1.8679,-1.8513,-1.8513,-1.8512,0,0,-1.8291,-1.8297,-1.8321,-1.8357,-1.8367,-1.8405,-1.8349,-1.8392,-1.842,-1.8376,-1.8433,-1.8437,-1.8453,-1.8523,-1.8554,-1.8529,-1.8668,-1.8622,-1.8629,-1.8633,-1.8673,-1.8688,-1.8702,-1.8517,-1.8517,-1.8516,0,0,-1.8395,-1.8403,-1.8456,-1.8468,-1.8483,-1.8477,-1.849,-1.8499,-1.8499,-1.8556,-1.8524,-1.8557,-1.8615,-1.8628,-1.8643,-1.8752,-1.8727,-1.8762,-1.8826,-1.8867,-1.888,-1.8892,-1.8932,-1.8946,-1.8771,-1.8771,-1.8771,0,-1.8452,-1.8507,-1.8487,-1.8532,-1.8549,-1.851,-1.8564,-1.8576,-1.8602,-1.8614,-1.8586,-1.8657,-1.8666,-1.8738,-1.8765,-1.8777,-1.8792,-1.8761,-1.888,-1.8891,-1.8902,-1.894,-1.8954,-1.8775,-1.8775,-1.8775,-1.8774,0,-1.8576,-1.8615,-1.8656,-1.8681,-1.8703,-1.8752,-1.874,-1.8764,-1.8748,-1.8744,-1.8803,-1.8811,-1.8843,-1.8859,-1.8844,-1.8929,-1.8914,-1.8883,-1.8833,-1.8922,-1.8957,-1.8972,-1.8782,-1.878,-1.8779,-1.8778,0,0,-1.8723,-1.8735,-1.8751,-1.8762,-1.8776,-1.8807,-1.8854,-1.8885,-1.8906,-1.8925,-1.8965,-1.9014,-1.8986,-1.9002,-1.8988,-1.9024,-1.9111,-1.8989,-1.8989,-1.9012,-1.9207,-1.9231,-1.9248,-1.9094,-1.9096,-1.9099,-1.9206,0,-1.8828,-1.891,-1.8893,-1.8973,-1.901,-1.8973,-1.9014,-1.9028,-1.9026,-1.9057,-1.9055,-1.9091,-1.905,-1.906,-1.9094,-1.9093,-1.915,-1.9085,-1.9132,-1.9134,-1.913,-1.9266,-1.9292,-1.9393,-1.9219,-1.9222,-1.9223,0,-1.8961,-1.8984,-1.9069,-1.9077,-1.9092,-1.913,-1.9156,-1.9186,-1.9201,-1.9197,-1.9215,-1.9194,-1.9242,-1.919,-1.9257,-1.9213,-1.9231,-1.9234,-1.9237,-1.9242,-1.9185,-1.9276,-1.9424,-1.944,-1.9245,-1.9243,-1.9242,0,-1.9061,-1.9113,-1.9171,-1.9181,-1.9192,-1.922,-1.9226,-1.9238,-1.9257,-1.928,-1.9293,-1.9322,-1.9338,-1.9361,-1.9348,-1.9312,-1.9417,-1.9364,-1.9416,-1.9417,-1.9441,-1.944,-1.9596,-1.9451,-1.945,-1.945,-1.945,0,-1.9181,-1.9234,-1.9216,-1.9251,-1.931,-1.929,-1.9348,-1.935,-1.9361,-1.9396,-1.9366,-1.94,-1.9381,-1.9414,-1.9404,-1.9461,-1.9468,-1.9467,-1.9464,-1.947,-1.9471,-1.9483,-1.9476,-1.9454,-1.9453,-1.9452,-1.9452,0,-1.9303,-1.9293,-1.9353,-1.9358,-1.9361,-1.9404,-1.9409,-1.9442,-1.9438,-1.9483,-1.9492,-1.9486,-1.9523,-1.9512,-1.9552,-1.9545,-1.9618,-1.9605,-1.9613,-1.961,-1.9663,-1.9658,-1.9833,-1.9855,-1.9695,-1.9696,-1.9697,0,-1.9381,-1.9421,-1.9431,-1.9452,-1.946,-1.9495,-1.9514,-1.9496,-1.9517,-1.9537,-1.9568,-1.9602,-1.9629,-1.9689,-1.9689,-1.9719,-1.9708,-1.9767,-1.9712,-1.9718,-1.971,-1.9708,-1.9713,-1.9778,-1.978,-1.9782,-1.9783,0,-1.952,-1.9513,-1.9542,-1.957,-1.9594,-1.9614,-1.9632,-1.9652,-1.9634,-1.966,-1.9697,-1.9718,-1.9758,-1.9793,-1.9821,-1.9827,-1.9803,-1.98,-1.9813,-1.9821,-1.9824,-1.9824,-1.9644,-1.9796,-1.9795,-1.9794,-1.9793,-1.9793,-1.9623,-1.9657,-1.967,-1.9703,-1.9714,-1.9732,-1.9764,-1.9763,-1.9793,-1.9824,-1.9811,-1.9854,-1.9868,-1.9903,-1.9913,-1.9947,-1.9924,-1.9944,-1.9949,-1.9955,-1.9962,-1.9818,-1.9951,-1.9951,-1.9951,-1.995,-1.995,0,-1.9762,-1.9768,-1.9799,-1.9825,-1.9851,-1.9824,-1.9843,-1.9867,-1.9905,-1.992,-1.9946,-1.9989,-2.0022,-2.0023,-2.0055,-2.0081,-2.0071,-2.009,-2.0089,-2.0091,-1.9979,-1.9965,-2.0098,-2.0098,-2.0098,-2.0098,-2.0098,-2.0098,-1.9837,-1.9894,-1.9888,-1.995,-1.9955,-1.9997,-2.001,-2.0026,-2.0038,-2.0087,-2.0114,-2.0114,-2.0124,-2.0155,-2.0185,-2.0184,-2.0198,-2.0222,-2.0217,-2.0113,-2.0099,-2.0085,-2.0071,-2.0225,-2.0225,-2.0326,-2.0327,-2.0328]},{"header":{"parameterUnit":"m.s-1","parameterCategory":1,"la1":30.2991,"la2":30.254,"lo1":-89.0895,"lo2":-89.0444,"dy":0.0017,"dx":0.0017,"nx":28,"ny":28,"refTime":"2023-11-11T09:00:00:Z","depth":0,"parameterNumber":3,"parameterNumberName":"V-component_of_WINDS"},"data":[0,0,0,0,0,0,0,0,0,0,0,0,0,0,0,0,0,0,0,0,0,0,0,0,0,0,0,0,0,0,0,0,0,0,0,0,0,0,0,0,0,0,0,0,0,0,0,0,0,0,0,0,0,0,0,0,0,0,-4.6165,-4.6165,0,-4.6151,-4.6151,-4.6151,-4.608,-4.6078,-4.6076,-4.6075,-4.6062,-4.6063,-4.6065,0,0,0,0,0,0,0,0,0,0,0,0,0,-4.613,-4.6131,-4.6165,-4.6165,-4.6164,-4.6151,-4.6151,-4.6151,-4.608,-4.6078,-4.6076,-4.6074,-4.6062,-4.6063,-4.6065,0,0,0,0,0,0,0,0,0,0,0,0,0,-4.6134,-4.6131,-4.6165,-4.6127,-4.6124,-4.6151,-4.6151,-4.6151,-4.608,-4.6078,-4.6075,-4.6073,-4.6061,-4.6063,-4.6065,-4.6128,0,0,-4.6071,-4.6071,0,0,0,0,0,0,0,0,-4.6134,-4.6135,-4.6133,-4.613,-4.6126,-4.6114,-4.6134,-4.6143,-4.6081,-4.6097,-4.6075,-4.6072,-4.6082,-4.6082,-4.6085,-4.6127,-4.6126,-4.6071,-4.6072,-4.6073,-4.6073,0,0,0,0,0,0,0,-4.6133,-4.6135,-4.6159,-4.6133,-4.6129,-4.6112,-4.6109,-4.6135,-4.6104,-4.6095,-4.609,-4.6089,-4.6079,-4.6083,-4.6084,-4.6126,-4.6071,-4.6072,-4.6074,-4.6074,-4.6218,-4.6221,0,0,0,0,0,0,-4.6138,-4.6135,-4.616,-4.6159,-4.6124,-4.6114,-4.6112,-4.6121,-4.6103,-4.6098,-4.6092,-4.6086,-4.6081,-4.6082,-4.6083,-4.6155,-4.6073,-4.6075,-4.6076,-4.6215,-4.6219,-4.6222,0,0,0,0,0,0,-4.6138,-4.6141,-4.616,-4.6146,-4.6147,-4.6118,-4.6128,-4.6122,-4.6126,-4.6101,-4.6095,-4.6101,-4.6079,-4.6081,-4.6117,-4.6153,-4.6075,-4.6077,-4.6212,-4.6216,-4.622,-4.6298,0,0,0,0,0,0,-4.6137,-4.6141,-4.6165,-4.6147,-4.6148,-4.6194,-4.6131,-4.6124,-4.6129,-4.6122,-4.6108,-4.6103,-4.6077,-4.6114,-4.6119,-4.6154,-4.6079,-4.6209,-4.6214,-4.6219,-4.6293,-4.6305,-4.6315,0,0,0,0,0,-4.6136,-4.6188,-4.6166,-4.617,-4.6177,-4.6196,-4.6197,-4.6166,-4.6132,-4.6155,-4.6139,-4.6104,-4.6149,-4.6119,-4.6123,-4.616,-4.6206,-4.6213,-4.6218,-4.6287,-4.6302,-4.6315,0,0,0,0,0,0,-4.6212,-4.6185,-4.6161,-4.6208,-4.6205,-4.6184,-4.6213,-4.6183,-4.6189,-4.6182,-4.6143,-4.6141,-4.6183,-4.6175,-4.6142,-4.6219,-4.6171,-4.6179,-4.6222,-4.6236,-4.6248,-4.6248,-4.608,0,0,0,0,0,-4.6234,-4.6252,-4.6228,-4.6272,-4.6271,-4.6243,-4.625,-4.6226,-4.6221,-4.622,-4.6206,-4.6203,-4.6216,-4.6226,-4.6237,-4.6291,-4.6287,-4.6319,-4.633,-4.6339,-4.6346,-4.6373,-4.6387,-4.6241,-4.6241,-4.6241,0,0,-4.628,-4.6267,-4.6281,-4.6287,-4.6281,-4.6301,-4.6242,-4.6265,-4.6279,-4.6223,-4.6256,-4.6246,-4.624,-4.6286,-4.6305,-4.628,-4.6385,-4.6347,-4.6355,-4.6356,-4.6381,-4.6395,-4.6407,-4.6246,-4.6245,-4.6244,0,0,-4.6373,-4.6366,-4.6402,-4.6397,-4.639,-4.637,-4.6379,-4.6362,-4.6353,-4.6385,-4.6344,-4.636,-4.6384,-4.6381,-4.6383,-4.6475,-4.6442,-4.648,-4.6539,-4.6566,-4.6577,-4.6587,-4.6619,-4.6631,-4.6486,-4.6487,-4.6487,0,-4.6432,-4.6459,-4.6424,-4.645,-4.6453,-4.6403,-4.6438,-4.6436,-4.6433,-4.6436,-4.6409,-4.6437,-4.643,-4.6473,-4.6495,-4.6499,-4.6507,-4.6481,-4.6578,-4.6588,-4.6597,-4.6627,-4.6639,-4.6491,-4.6491,-4.649,-4.649,0,-4.6531,-4.655,-4.658,-4.6577,-4.6584,-4.6615,-4.6584,-4.6595,-4.6571,-4.6554,-4.6587,-4.6577,-4.6584,-4.6593,-4.6569,-4.6633,-4.6618,-4.6585,-4.6536,-4.6616,-4.6643,-4.6655,-4.6498,-4.6496,-4.6495,-4.6493,0,0,-4.6672,-4.6648,-4.666,-4.6657,-4.6645,-4.6659,-4.6688,-4.6694,-4.6704,-4.6704,-4.6726,-4.6747,-4.6717,-4.6719,-4.6695,-4.6719,-4.6791,-4.6683,-4.6682,-4.6703,-4.686,-4.6884,-4.6898,-4.677,-4.6772,-4.6773,-4.686,0,-4.6761,-4.6807,-4.6776,-4.6827,-4.6844,-4.6797,-4.6821,-4.6816,-4.6801,-4.6814,-4.6798,-4.6813,-4.6772,-4.6772,-4.6794,-4.6778,-4.6822,-4.6771,-4.679,-4.6791,-4.6792,-4.6912,-4.6938,-4.702,-4.6871,-4.6872,-4.6874,0,-4.6871,-4.6874,-4.6927,-4.691,-4.6916,-4.6938,-4.6941,-4.6954,-4.6948,-4.6935,-4.6937,-4.6907,-4.6933,-4.6886,-4.6922,-4.6888,-4.6894,-4.6887,-4.6889,-4.6889,-4.6837,-4.6915,-4.7046,-4.7058,-4.6891,-4.6889,-4.6888,0,-4.6967,-4.6985,-4.7018,-4.7018,-4.6999,-4.7016,-4.7009,-4.7,-4.7006,-4.7009,-4.7012,-4.7018,-4.7022,-4.7028,-4.7,-4.6968,-4.7039,-4.699,-4.7029,-4.703,-4.7046,-4.7045,-4.7179,-4.7052,-4.7051,-4.7051,-4.7051,0,-4.707,-4.7104,-4.7061,-4.7082,-4.7119,-4.7083,-4.712,-4.7108,-4.71,-4.7118,-4.7077,-4.7095,-4.7057,-4.7071,-4.7049,-4.7082,-4.7084,-4.7075,-4.7069,-4.7078,-4.7079,-4.7081,-4.7074,-4.7054,-4.7054,-4.7053,-4.7052,0,-4.7184,-4.7157,-4.719,-4.7169,-4.7165,-4.7192,-4.7175,-4.7193,-4.7175,-4.7198,-4.7201,-4.7173,-4.7187,-4.716,-4.7171,-4.7156,-4.7202,-4.7187,-4.7204,-4.7199,-4.7241,-4.7237,-4.7379,-4.7396,-4.7259,-4.726,-4.7261,0,-4.725,-4.7275,-4.7257,-4.7265,-4.726,-4.7274,-4.7279,-4.7245,-4.7252,-4.7246,-4.7265,-4.7275,-4.7282,-4.7306,-4.7288,-4.7295,-4.728,-4.733,-4.7281,-4.729,-4.728,-4.7279,-4.7281,-4.7339,-4.7341,-4.7342,-4.7344,0,-4.7371,-4.7356,-4.7365,-4.7369,-4.7376,-4.7378,-4.7377,-4.7386,-4.7349,-4.7359,-4.7373,-4.7378,-4.7388,-4.7399,-4.7402,-4.7395,-4.7364,-4.7359,-4.7368,-4.7378,-4.7386,-4.7382,-4.7231,-4.7356,-4.7355,-4.7354,-4.7353,-4.7353,-4.7463,-4.7482,-4.7472,-4.7483,-4.7478,-4.7478,-4.7493,-4.7477,-4.7487,-4.7492,-4.7471,-4.7489,-4.7482,-4.7482,-4.7479,-4.7493,-4.7471,-4.7485,-4.7488,-4.7492,-4.7498,-4.7385,-4.7493,-4.7493,-4.7493,-4.7492,-4.7492,0,-4.7581,-4.7572,-4.7582,-4.7581,-4.7589,-4.7558,-4.7555,-4.7564,-4.758,-4.7575,-4.7582,-4.7597,-4.7607,-4.7589,-4.7596,-4.761,-4.7596,-4.7613,-4.7612,-4.7611,-4.7518,-4.7508,-4.7625,-4.7625,-4.7625,-4.7625,-4.7625,-4.7625,-4.7644,-4.7674,-4.7658,-4.7686,-4.7676,-4.7693,-4.7694,-4.7693,-4.7689,-4.7707,-4.7715,-4.7702,-4.7692,-4.7698,-4.7706,-4.77,-4.7705,-4.7727,-4.7717,-4.763,-4.7617,-4.7605,-4.7596,-4.7729,-4.7729,-4.7808,-4.7809,-4.7809]}]]